Hourly Weather Abbadia San Salvatore

Today, 5 December, Saturday

Time Temperature Precipitation Wind Pressure Humidity
00:00 +4°C° 2.9 mm 6 mps 659 mmHg 90%
01:00 +5°C° 0 mm 5 mps 659 mmHg 92%
02:00 +5°C° 3.1 mm 5 mps 659 mmHg 92%
03:00 +4°C° 3.1 mm 6 mps 659 mmHg 92%
04:00 +4°C° 3.1 mm 6 mps 659 mmHg 92%
05:00 +4°C° 2.4 mm 6 mps 659 mmHg 92%
06:00 +4°C° 2.4 mm 6 mps 659 mmHg 92%
07:00 +4°C° 2.4 mm 6 mps 659 mmHg 92%
08:00 +5°C° 0.7 mm 7 mps 659 mmHg 89%
09:00 +5°C° 0.7 mm 7 mps 660 mmHg 86%
10:00 +6°C° 0.7 mm 8 mps 660 mmHg 83%
11:00 +6°C° 0.3 mm 9 mps 660 mmHg 81%
12:00 +7°C° 0.3 mm 10 mps 660 mmHg 79%
13:00 +7°C° 0.3 mm 10 mps 661 mmHg 77%
14:00 +7°C° 1.1 mm 10 mps 660 mmHg 79%
15:00 +6°C° 1.1 mm 9 mps 660 mmHg 81%
16:00 +6°C° 1.1 mm 8 mps 660 mmHg 83%
17:00 +6°C° 0.8 mm 8 mps 660 mmHg 85%
18:00 +5°C° 0.8 mm 7 mps 660 mmHg 86%
19:00 +5°C° 0.8 mm 6 mps 660 mmHg 88%
20:00 +6°C° 0.9 mm 5 mps 660 mmHg 89%
21:00 +5°C° 0.9 mm 5 mps 660 mmHg 90%
22:00 +5°C° 0.9 mm 4 mps 660 mmHg 91%
23:00 +5°C° 0.8 mm 4 mps 660 mmHg 92%

Tomorrow, 6 December, Sunday

Time Temperature Precipitation Wind Pressure Humidity
00:00 +5°C° 0.8 mm 4 mps 660 mmHg 93%
01:00 +5°C° 0.8 mm 3 mps 660 mmHg 93%
02:00 +5°C° 0.6 mm 3 mps 660 mmHg 94%
03:00 +5°C° 0.6 mm 3 mps 660 mmHg 95%
04:00 +6°C° 0.6 mm 2 mps 659 mmHg 95%
05:00 +6°C° 0.7 mm 2 mps 659 mmHg 95%
06:00 +5°C° 0.7 mm 2 mps 658 mmHg 95%
07:00 +5°C° 0.7 mm 2 mps 658 mmHg 95%
08:00 +5°C° 3.1 mm 2 mps 657 mmHg 95%
09:00 +4°C° 3.1 mm 2 mps 657 mmHg 95%
10:00 +4°C° 3.1 mm 2 mps 656 mmHg 96%
11:00 +4°C° 3.2 mm 2 mps 656 mmHg 94%
12:00 +5°C° 3.2 mm 1 mps 655 mmHg 92%
13:00 +4°C° 3.2 mm 1 mps 655 mmHg 91%
14:00 +3°C° 0.7 mm 2 mps 655 mmHg 92%
15:00 +3°C° 0.7 mm 2 mps 655 mmHg 93%
16:00 +2°C° 0.7 mm 3 mps 656 mmHg 94%
17:00 +2°C° 0.8 mm 2 mps 656 mmHg 93%
18:00 +2°C° 0.8 mm 2 mps 656 mmHg 91%
19:00 +3°C° 0.8 mm 1 mps 657 mmHg 90%
20:00 +2°C° 0.1 mm 1 mps 657 mmHg 90%
21:00 +2°C° 0.1 mm 1 mps 658 mmHg 91%
22:00 +1°C° 0.1 mm 2 mps 658 mmHg 91%
23:00 +1°C° 0 mm 2 mps 658 mmHg 92%

Day after tomorrow, 7 December, Monday

Time Temperature Precipitation Wind Pressure Humidity
00:00 -1°C° 0 mm 2 mps 659 mmHg 92%
01:00 -1°C° 0 mm 2 mps 659 mmHg 93%
02:00 -1°C° 0 mm 2 mps 659 mmHg 93%
03:00 -1°C° 0 mm 2 mps 659 mmHg 93%
04:00 -1°C° 0 mm 2 mps 659 mmHg 94%
05:00 -1°C° 0.1 mm 2 mps 659 mmHg 93%
06:00 -1°C° 0.1 mm 2 mps 660 mmHg 93%
07:00 0°C° 0.1 mm 3 mps 660 mmHg 93%
08:00 +1°C° 0.1 mm 3 mps 661 mmHg 88%
09:00 +2°C° 0.1 mm 3 mps 661 mmHg 84%
10:00 +2°C° 0.1 mm 3 mps 662 mmHg 79%
11:00 +3°C° 0.1 mm 4 mps 662 mmHg 75%
12:00 +3°C° 0.1 mm 4 mps 662 mmHg 71%
13:00 +4°C° 0.1 mm 4 mps 662 mmHg 67%
14:00 +3°C° 0.2 mm 4 mps 662 mmHg 71%
15:00 +1°C° 0.2 mm 4 mps 662 mmHg 75%
16:00 +1°C° 0.2 mm 4 mps 662 mmHg 78%
17:00 0°C° 0.8 mm 4 mps 662 mmHg 82%
18:00 0°C° 0.8 mm 3 mps 662 mmHg 85%
19:00 0°C° 0.8 mm 3 mps 662 mmHg 89%
20:00 +1°C° 0.7 mm 2 mps 662 mmHg 91%
21:00 -1°C° 0.7 mm 2 mps 662 mmHg 92%
22:00 -1°C° 0.7 mm 2 mps 661 mmHg 94%
23:00 -1°C° 0.3 mm 2 mps 661 mmHg 94%

8 December, Tuesday

Time Temperature Precipitation Wind Pressure Humidity
00:00 -1°C° 0.3 mm 2 mps 661 mmHg 93%
01:00 -1°C° 0.3 mm 2 mps 661 mmHg 93%
02:00 -1°C° 0.3 mm 2 mps 660 mmHg 93%
03:00 -1°C° 0.3 mm 2 mps 660 mmHg 93%
04:00 +1°C° 0.3 mm 2 mps 659 mmHg 92%
05:00 0°C° 1.4 mm 3 mps 659 mmHg 93%
06:00 0°C° 1.4 mm 3 mps 658 mmHg 93%
07:00 0°C° 1.4 mm 3 mps 657 mmHg 94%
08:00 -1°C° 2.7 mm 4 mps 657 mmHg 93%
09:00 -2°C° 2.7 mm 5 mps 656 mmHg 93%
10:00 -3°C° 2.7 mm 6 mps 656 mmHg 93%
11:00 -2°C° 0.2 mm 5 mps 656 mmHg 92%
12:00 0°C° 0.2 mm 3 mps 656 mmHg 92%
13:00 +1°C° 0.2 mm 2 mps 656 mmHg 91%
14:00 +1°C° 0.2 mm 2 mps 656 mmHg 92%
15:00 +1°C° 0.2 mm 2 mps 656 mmHg 93%
16:00 +2°C° 0.2 mm 1 mps 656 mmHg 94%
17:00 +2°C° 0.1 mm 1 mps 656 mmHg 95%
18:00 +2°C° 0.1 mm 1 mps 657 mmHg 95%
19:00 +1°C° 0.1 mm 1 mps 657 mmHg 96%
20:00 +1°C° 0.1 mm 1 mps 657 mmHg 96%
21:00 +1°C° 0.1 mm 1 mps 658 mmHg 96%
22:00 +1°C° 0.1 mm 1 mps 658 mmHg 95%
23:00 +1°C° 0.1 mm 1 mps 658 mmHg 95%

9 December, Wednesday

Time Temperature Precipitation Wind Pressure Humidity
00:00 0°C° 0.1 mm 1 mps 658 mmHg 95%
01:00 0°C° 0.1 mm 1 mps 658 mmHg 95%
02:00 0°C° 0 mm 1 mps 658 mmHg 95%
03:00 0°C° 0 mm 1 mps 658 mmHg 94%
04:00 -1°C° 0 mm 0 mps 659 mmHg 94%
05:00 -2°C° 0 mm 0 mps 659 mmHg 93%
06:00 -1°C° 0 mm 1 mps 659 mmHg 92%
07:00 -1°C° 0 mm 1 mps 659 mmHg 91%
08:00 0°C° 0 mm 1 mps 659 mmHg 88%
09:00 0°C° 0 mm 0 mps 660 mmHg 85%
10:00 +1°C° 0 mm 0 mps 661 mmHg 82%
11:00 +2°C° 0 mm 0 mps 661 mmHg 79%
12:00 +3°C° 0 mm 0 mps 661 mmHg 76%
13:00 +4°C° 0 mm 1 mps 661 mmHg 72%
14:00 +4°C° 0 mm 1 mps 661 mmHg 76%
15:00 +3°C° 0 mm 1 mps 661 mmHg 79%
16:00 +3°C° 0 mm 1 mps 661 mmHg 82%
17:00 +3°C° 0.2 mm 1 mps 661 mmHg 84%
18:00 +1°C° 0.2 mm 2 mps 661 mmHg 86%
19:00 +1°C° 0.2 mm 2 mps 661 mmHg 89%
20:00 +1°C° 0.3 mm 2 mps 661 mmHg 90%
21:00 +1°C° 0.3 mm 2 mps 662 mmHg 91%
22:00 +1°C° 0.3 mm 2 mps 662 mmHg 93%
23:00 -1°C° 0 mm 2 mps 662 mmHg 93%

10 December, Thursday

Time Temperature Precipitation Wind Pressure Humidity
00:00 -1°C° 0 mm 2 mps 662 mmHg 94%
01:00 +1°C° 0 mm 1 mps 662 mmHg 94%
02:00 0°C° 0 mm 1 mps 661 mmHg 94%
03:00 0°C° 0 mm 1 mps 661 mmHg 94%
04:00 0°C° 0 mm 1 mps 661 mmHg 94%
05:00 0°C° 0 mm 1 mps 661 mmHg 94%
06:00 -1°C° 0 mm 1 mps 661 mmHg 94%
07:00 -1°C° 0 mm 1 mps 661 mmHg 94%
08:00 0°C° 0 mm 1 mps 662 mmHg 91%
09:00 +1°C° 0 mm 1 mps 662 mmHg 89%
10:00 +1°C° 0 mm 0 mps 663 mmHg 86%
11:00 +3°C° 0 mm 1 mps 663 mmHg 82%
12:00 +4°C° 0 mm 1 mps 663 mmHg 78%
13:00 +4°C° 0 mm 1 mps 663 mmHg 73%
14:00 +4°C° 0 mm 1 mps 663 mmHg 76%
15:00 +2°C° 0 mm 0 mps 663 mmHg 78%
16:00 +2°C° 0 mm 0 mps 662 mmHg 80%
17:00 +1°C° 0 mm 0 mps 662 mmHg 82%
18:00 0°C° 0 mm 0 mps 662 mmHg 84%
19:00 0°C° 0 mm 0 mps 661 mmHg 86%
20:00 0°C° 0 mm 0 mps 661 mmHg 86%
21:00 +1°C° 0 mm 1 mps 662 mmHg 86%
22:00 +1°C° 0 mm 1 mps 662 mmHg 87%
23:00 0°C° 0 mm 1 mps 661 mmHg 87%
Show more

We Need Your Consent

Meteoprog and our Service Providers may store and access personal data such as cookies, device identifiers or other similar technologies on your device and process such data to personalise content and ads, as well as provide social media features and to analyse the traffic.

  • Store and/or access information on your device

    Cookies, device identifiers or other information can be stored or accessed on your device for the purposes indicated above.

  • Personalised ads and content, ad and content measurement, audience insights, and products development

    Ads and content can be personalised based on a profile. More data can be added to better personalise ads and content. Ad and content performance can be measured. Insights about the audience who saw the ads and content can be derived. Such data can be used to develop or improve user’s experience, systems and software.

By clicking ‘I Agree’ you will allow the use of indicated cookies, device identifiers, web beacons or other similar technologies. Your settings can be changed in the browser on your device.

For certain purposes, legitimate interests may be relied on, rather than consent. You can read more about this in our Privacy and Cookie Policy.